Year,Month,Day,Hour,Minute,Value (Times are PST for temperature in C)
2013,05,04,00,00,9.90
2013,05,04,00,01,9.80
2013,05,04,00,02,9.80
2013,05,04,00,03,9.80
2013,05,04,00,04,9.80
2013,05,04,00,05,9.80
2013,05,04,00,06,9.80
2013,05,04,00,07,9.80
2013,05,04,00,08,9.80
2013,05,04,00,09,9.80
2013,05,04,00,10,9.70
2013,05,04,00,11,9.70
2013,05,04,00,12,9.70
2013,05,04,00,13,9.70
2013,05,04,00,14,9.70
2013,05,04,00,15,9.70
2013,05,04,00,16,9.70
2013,05,04,00,17,9.70
2013,05,04,00,18,9.70
2013,05,04,00,19,9.60
2013,05,04,00,20,9.60
2013,05,04,00,21,9.60
2013,05,04,00,22,9.60
2013,05,04,00,23,9.60
2013,05,04,00,24,9.60
2013,05,04,00,25,9.60
2013,05,04,00,26,9.60
2013,05,04,00,27,9.60
2013,05,04,00,28,9.60
2013,05,04,00,29,9.60
2013,05,04,00,30,9.60
2013,05,04,00,31,9.60
2013,05,04,00,32,9.50
2013,05,04,00,33,9.50
2013,05,04,00,34,9.50
2013,05,04,00,35,9.50
2013,05,04,00,36,9.40
2013,05,04,00,37,9.40
2013,05,04,00,38,9.40
2013,05,04,00,39,9.40
2013,05,04,00,40,9.40
2013,05,04,00,41,9.40
2013,05,04,00,42,9.40
2013,05,04,00,43,9.40
2013,05,04,00,44,9.40
2013,05,04,00,45,9.40
2013,05,04,00,46,9.40
2013,05,04,00,47,9.40
2013,05,04,00,48,9.40
2013,05,04,00,49,9.40
2013,05,04,00,50,9.30
2013,05,04,00,51,9.30
2013,05,04,00,52,9.30
2013,05,04,00,53,9.30
2013,05,04,00,54,9.30
2013,05,04,00,55,9.30
2013,05,04,00,56,9.30
2013,05,04,00,57,9.30
2013,05,04,00,58,9.20
2013,05,04,00,59,9.20
2013,05,04,01,00,9.20
2013,05,04,01,01,9.20
2013,05,04,01,02,9.20
2013,05,04,01,03,9.20
2013,05,04,01,04,9.20
2013,05,04,01,05,9.20
2013,05,04,01,06,9.20
2013,05,04,01,07,9.20
2013,05,04,01,08,9.20
2013,05,04,01,09,9.20
2013,05,04,01,10,9.20
2013,05,04,01,11,9.20
2013,05,04,01,12,9.20
2013,05,04,01,13,9.20
2013,05,04,01,14,9.20
2013,05,04,01,15,9.20
2013,05,04,01,16,9.20
2013,05,04,01,17,9.20
2013,05,04,01,18,9.20
2013,05,04,01,19,9.10
2013,05,04,01,20,9.10
2013,05,04,01,21,9.10
2013,05,04,01,22,9.10
2013,05,04,01,23,9.10
2013,05,04,01,24,9.10
2013,05,04,01,25,9.10
2013,05,04,01,26,9.10
2013,05,04,01,27,9.10
2013,05,04,01,28,9.10
2013,05,04,01,29,9.10
2013,05,04,01,30,9.10
2013,05,04,01,31,9.10
2013,05,04,01,32,9.10
2013,05,04,01,33,9.10
2013,05,04,01,34,9.10
2013,05,04,01,35,9.00
2013,05,04,01,36,9.00
2013,05,04,01,37,9.00
2013,05,04,01,38,9.00
2013,05,04,01,39,8.90
2013,05,04,01,40,8.90
2013,05,04,01,41,8.90
2013,05,04,01,42,8.90
2013,05,04,01,43,8.90
2013,05,04,01,44,8.90
2013,05,04,01,45,8.90
2013,05,04,01,46,8.90
2013,05,04,01,47,8.90
2013,05,04,01,48,9.00
2013,05,04,01,49,9.00
2013,05,04,01,50,9.00
2013,05,04,01,51,9.00
2013,05,04,01,52,9.00
2013,05,04,01,53,9.10
2013,05,04,01,54,9.10
2013,05,04,01,55,9.10
2013,05,04,01,56,9.10
2013,05,04,01,57,9.10
2013,05,04,01,58,9.10
2013,05,04,01,59,9.10
2013,05,04,02,00,9.10
2013,05,04,02,01,9.10
2013,05,04,02,02,9.10
2013,05,04,02,03,9.10
2013,05,04,02,04,9.10
2013,05,04,02,05,9.10
2013,05,04,02,06,9.10
2013,05,04,02,07,9.10
2013,05,04,02,08,9.10
2013,05,04,02,09,9.10
2013,05,04,02,10,9.10
2013,05,04,02,11,9.00
2013,05,04,02,12,9.00
2013,05,04,02,13,9.00
2013,05,04,02,14,9.00
2013,05,04,02,15,9.00
2013,05,04,02,16,9.00
2013,05,04,02,17,9.00
2013,05,04,02,18,9.00
2013,05,04,02,19,9.00
2013,05,04,02,20,9.00
2013,05,04,02,21,9.00
2013,05,04,02,22,8.90
2013,05,04,02,23,8.90
2013,05,04,02,24,8.90
2013,05,04,02,25,8.90
2013,05,04,02,26,8.90
2013,05,04,02,27,8.90
2013,05,04,02,28,8.90
2013,05,04,02,29,8.90
2013,05,04,02,30,8.90
2013,05,04,02,31,8.90
2013,05,04,02,32,8.90
2013,05,04,02,33,8.90
2013,05,04,02,34,8.80
2013,05,04,02,35,8.80
2013,05,04,02,36,8.80
2013,05,04,02,37,8.80
2013,05,04,02,38,8.70
2013,05,04,02,39,8.70
2013,05,04,02,40,8.70
2013,05,04,02,41,8.70
2013,05,04,02,42,8.70
2013,05,04,02,43,8.70
2013,05,04,02,44,8.70
2013,05,04,02,45,8.70
2013,05,04,02,46,8.60
2013,05,04,02,47,8.60
2013,05,04,02,48,8.60
2013,05,04,02,49,8.60
2013,05,04,02,50,8.60
2013,05,04,02,51,8.60
2013,05,04,02,52,8.60
2013,05,04,02,53,8.60
2013,05,04,02,54,8.60
2013,05,04,02,55,8.60
2013,05,04,02,56,8.60
2013,05,04,02,57,8.50
2013,05,04,02,58,8.50
2013,05,04,02,59,8.50
2013,05,04,03,00,8.50
2013,05,04,03,01,8.50
2013,05,04,03,02,8.50
2013,05,04,03,03,8.60
2013,05,04,03,04,8.60
2013,05,04,03,05,8.60
2013,05,04,03,06,8.60
2013,05,04,03,07,8.60
2013,05,04,03,08,8.60
2013,05,04,03,09,8.60
2013,05,04,03,10,8.60
2013,05,04,03,11,8.60
2013,05,04,03,12,8.60
2013,05,04,03,13,8.60
2013,05,04,03,14,8.60
2013,05,04,03,15,8.60
2013,05,04,03,16,8.60
2013,05,04,03,17,8.60
2013,05,04,03,18,8.60
2013,05,04,03,19,8.60
2013,05,04,03,20,8.60
2013,05,04,03,21,8.60
2013,05,04,03,22,8.60
2013,05,04,03,23,8.60
2013,05,04,03,24,8.50
2013,05,04,03,25,8.50
2013,05,04,03,26,8.50
2013,05,04,03,27,8.50
2013,05,04,03,28,8.50
2013,05,04,03,29,8.50
2013,05,04,03,30,8.40
2013,05,04,03,31,8.40
2013,05,04,03,32,8.40
2013,05,04,03,33,8.40
2013,05,04,03,34,8.40
2013,05,04,03,35,8.40
2013,05,04,03,36,8.40
2013,05,04,03,37,8.40
2013,05,04,03,38,8.40
2013,05,04,03,39,8.40
2013,05,04,03,40,8.40
2013,05,04,03,41,8.40
2013,05,04,03,42,8.40
2013,05,04,03,43,8.40
2013,05,04,03,44,8.40
2013,05,04,03,45,8.40
2013,05,04,03,46,8.30
2013,05,04,03,47,8.30
2013,05,04,03,48,8.30
2013,05,04,03,49,8.30
2013,05,04,03,50,8.30
2013,05,04,03,51,8.30
2013,05,04,03,52,8.20
2013,05,04,03,53,8.20
2013,05,04,03,54,8.20
2013,05,04,03,55,8.20
2013,05,04,03,56,8.20
2013,05,04,03,57,8.20
2013,05,04,03,58,8.20
2013,05,04,03,59,8.20
2013,05,04,04,00,8.20
2013,05,04,04,01,8.20
2013,05,04,04,02,8.20
2013,05,04,04,03,8.20
2013,05,04,04,04,8.10
2013,05,04,04,05,8.10
2013,05,04,04,06,8.10
2013,05,04,04,07,8.10
2013,05,04,04,08,8.10
2013,05,04,04,09,8.10
2013,05,04,04,10,8.10
2013,05,04,04,11,8.10
2013,05,04,04,12,8.10
2013,05,04,04,13,8.10
2013,05,04,04,14,8.10
2013,05,04,04,15,8.10
2013,05,04,04,16,8.10
2013,05,04,04,17,8.10
2013,05,04,04,18,8.10
2013,05,04,04,19,8.10
2013,05,04,04,20,8.10
2013,05,04,04,21,8.20
2013,05,04,04,22,8.20
2013,05,04,04,23,8.20
2013,05,04,04,24,8.20
2013,05,04,04,25,8.20
2013,05,04,04,26,8.20
2013,05,04,04,27,8.20
2013,05,04,04,28,8.20
2013,05,04,04,29,8.20
2013,05,04,04,30,8.20
2013,05,04,04,31,8.20
2013,05,04,04,32,8.20
2013,05,04,04,33,8.20
2013,05,04,04,34,8.20
2013,05,04,04,35,8.20
2013,05,04,04,36,8.20
2013,05,04,04,37,8.20
2013,05,04,04,38,8.20
2013,05,04,04,39,8.20
2013,05,04,04,40,8.20
2013,05,04,04,41,8.20
2013,05,04,04,42,8.20
2013,05,04,04,43,8.20
2013,05,04,04,44,8.20
2013,05,04,04,45,8.20
2013,05,04,04,46,8.20
2013,05,04,04,47,8.20
2013,05,04,04,48,8.10
2013,05,04,04,49,8.10
2013,05,04,04,50,8.10
2013,05,04,04,51,8.10
2013,05,04,04,52,8.10
2013,05,04,04,53,8.10
2013,05,04,04,54,8.10
2013,05,04,04,55,8.10
2013,05,04,04,56,8.10
2013,05,04,04,57,8.10
2013,05,04,04,58,8.10
2013,05,04,04,59,8.10
2013,05,04,05,00,8.10
2013,05,04,05,01,8.10
2013,05,04,05,02,8.10
2013,05,04,05,03,8.10
2013,05,04,05,04,8.10
2013,05,04,05,05,8.00
2013,05,04,05,06,8.00
2013,05,04,05,07,8.00
2013,05,04,05,08,8.00
2013,05,04,05,09,7.90
2013,05,04,05,10,7.90
2013,05,04,05,11,7.90
2013,05,04,05,12,7.90
2013,05,04,05,13,7.90
2013,05,04,05,14,7.90
2013,05,04,05,15,7.90
2013,05,04,05,16,7.90
2013,05,04,05,17,7.80
2013,05,04,05,18,7.80
2013,05,04,05,19,7.80
2013,05,04,05,20,7.80
2013,05,04,05,21,7.80
2013,05,04,05,22,7.80
2013,05,04,05,23,7.80
2013,05,04,05,24,7.80
2013,05,04,05,25,7.80
2013,05,04,05,26,7.80
2013,05,04,05,27,7.80
2013,05,04,05,28,7.80
2013,05,04,05,29,7.80
2013,05,04,05,30,7.80
2013,05,04,05,31,7.80
2013,05,04,05,32,7.80
2013,05,04,05,33,7.80
2013,05,04,05,34,7.80
2013,05,04,05,35,7.80
2013,05,04,05,36,7.80
2013,05,04,05,37,7.80
2013,05,04,05,38,7.80
2013,05,04,05,39,7.80
2013,05,04,05,40,7.80
2013,05,04,05,41,7.80
2013,05,04,05,42,7.80
2013,05,04,05,43,7.80
2013,05,04,05,44,7.80
2013,05,04,05,45,7.80
2013,05,04,05,46,7.80
2013,05,04,05,47,7.80
2013,05,04,05,48,7.80
2013,05,04,05,49,7.90
2013,05,04,05,50,7.90
2013,05,04,05,51,7.90
2013,05,04,05,52,7.90
2013,05,04,05,53,7.90
2013,05,04,05,54,7.90
2013,05,04,05,55,8.00
2013,05,04,05,56,8.00
2013,05,04,05,57,8.00
2013,05,04,05,58,8.00
2013,05,04,05,59,8.00
2013,05,04,06,00,8.00
2013,05,04,06,01,8.00
2013,05,04,06,02,8.00
2013,05,04,06,03,8.00
2013,05,04,06,04,8.00
2013,05,04,06,05,8.00
2013,05,04,06,06,8.00
2013,05,04,06,07,8.00
2013,05,04,06,08,8.00
2013,05,04,06,09,8.10
2013,05,04,06,10,8.10
2013,05,04,06,11,8.10
2013,05,04,06,12,8.10
2013,05,04,06,13,8.10
2013,05,04,06,14,8.10
2013,05,04,06,15,8.10
2013,05,04,06,16,8.10
2013,05,04,06,17,8.10
2013,05,04,06,18,8.20
2013,05,04,06,19,8.20
2013,05,04,06,20,8.20
2013,05,04,06,21,8.20
2013,05,04,06,22,8.20
2013,05,04,06,23,8.20
2013,05,04,06,24,8.20
2013,05,04,06,25,8.20
2013,05,04,06,26,8.20
2013,05,04,06,27,8.20
2013,05,04,06,28,8.30
2013,05,04,06,29,8.30
2013,05,04,06,30,8.40
2013,05,04,06,31,8.50
2013,05,04,06,32,8.60
2013,05,04,06,33,8.80
2013,05,04,06,34,9.00
2013,05,04,06,35,9.20
2013,05,04,06,36,9.30
2013,05,04,06,37,9.40
2013,05,04,06,38,9.60
2013,05,04,06,39,9.80
2013,05,04,06,40,9.90
2013,05,04,06,41,10.10
2013,05,04,06,42,10.20
2013,05,04,06,43,10.40
2013,05,04,06,44,10.50
2013,05,04,06,45,10.60
2013,05,04,06,46,10.80
2013,05,04,06,47,10.80
2013,05,04,06,48,10.90
2013,05,04,06,49,11.00
2013,05,04,06,50,11.10
2013,05,04,06,51,11.20
2013,05,04,06,52,11.20
2013,05,04,06,53,11.20
2013,05,04,06,54,11.20
2013,05,04,06,55,11.30
2013,05,04,06,56,11.30
2013,05,04,06,57,11.30
2013,05,04,06,58,11.30
2013,05,04,06,59,11.30
2013,05,04,07,00,11.30
2013,05,04,07,01,11.30
2013,05,04,07,02,11.40
2013,05,04,07,03,11.40
2013,05,04,07,04,11.50
2013,05,04,07,05,11.60
2013,05,04,07,06,11.70
2013,05,04,07,07,11.70
2013,05,04,07,08,11.80
2013,05,04,07,09,11.90
2013,05,04,07,10,12.00
2013,05,04,07,11,12.10
2013,05,04,07,12,12.20
2013,05,04,07,13,12.20
2013,05,04,07,14,12.30
2013,05,04,07,15,12.30
2013,05,04,07,16,12.30
2013,05,04,07,17,12.30
2013,05,04,07,18,12.30
2013,05,04,07,19,12.30
2013,05,04,07,20,12.40
2013,05,04,07,21,12.40
2013,05,04,07,22,12.30
2013,05,04,07,23,12.30
2013,05,04,07,24,12.30
2013,05,04,07,25,12.30
2013,05,04,07,26,12.30
2013,05,04,07,27,12.30
2013,05,04,07,28,12.30
2013,05,04,07,29,12.40
2013,05,04,07,30,12.40
2013,05,04,07,31,12.50
2013,05,04,07,32,12.60
2013,05,04,07,33,12.60
2013,05,04,07,34,12.70
2013,05,04,07,35,12.80
2013,05,04,07,36,12.80
2013,05,04,07,37,12.90
2013,05,04,07,38,12.90
2013,05,04,07,39,12.90
2013,05,04,07,40,13.00
2013,05,04,07,41,13.10
2013,05,04,07,42,13.10
2013,05,04,07,43,13.20
2013,05,04,07,44,13.20
2013,05,04,07,45,13.30
2013,05,04,07,46,13.30
2013,05,04,07,47,13.40
2013,05,04,07,48,13.50
2013,05,04,07,49,13.60
2013,05,04,07,50,13.70
2013,05,04,07,51,13.80
2013,05,04,07,52,13.80
2013,05,04,07,53,13.90
2013,05,04,07,54,13.90
2013,05,04,07,55,14.00
2013,05,04,07,56,14.00
2013,05,04,07,57,14.10
2013,05,04,07,58,14.10
2013,05,04,07,59,14.20
2013,05,04,08,00,14.20
2013,05,04,08,01,14.20
2013,05,04,08,02,14.30
2013,05,04,08,03,14.30
2013,05,04,08,04,14.30
2013,05,04,08,05,14.30
2013,05,04,08,06,14.30
2013,05,04,08,07,14.30
2013,05,04,08,08,14.30
2013,05,04,08,09,14.30
2013,05,04,08,10,14.30
2013,05,04,08,11,14.40
2013,05,04,08,12,14.40
2013,05,04,08,13,14.40
2013,05,04,08,14,14.50
2013,05,04,08,15,14.50
2013,05,04,08,16,14.60
2013,05,04,08,17,14.60
2013,05,04,08,18,14.70
2013,05,04,08,19,14.70
2013,05,04,08,20,14.70
2013,05,04,08,21,14.70
2013,05,04,08,22,14.80
2013,05,04,08,23,14.80
2013,05,04,08,24,14.80
2013,05,04,08,25,14.80
2013,05,04,08,26,14.80
2013,05,04,08,27,14.90
2013,05,04,08,28,14.90
2013,05,04,08,29,15.00
2013,05,04,08,30,15.00
2013,05,04,08,31,15.00
2013,05,04,08,32,15.00
2013,05,04,08,33,15.00
2013,05,04,08,34,15.00
2013,05,04,08,35,15.00
2013,05,04,08,36,15.00
2013,05,04,08,37,15.00
2013,05,04,08,38,15.00
2013,05,04,08,39,15.00
2013,05,04,08,40,15.10
2013,05,04,08,41,15.20
2013,05,04,08,42,15.30
2013,05,04,08,43,15.30
2013,05,04,08,44,15.40
2013,05,04,08,45,15.40
2013,05,04,08,46,15.50
2013,05,04,08,47,15.60
2013,05,04,08,48,15.60
2013,05,04,08,49,15.60
2013,05,04,08,50,15.70
2013,05,04,08,51,15.70
2013,05,04,08,52,15.70
2013,05,04,08,53,15.80
2013,05,04,08,54,15.80
2013,05,04,08,55,15.80
2013,05,04,08,56,15.80
2013,05,04,08,57,15.80
2013,05,04,08,58,15.90
2013,05,04,08,59,15.80
2013,05,04,09,00,15.80
2013,05,04,09,01,15.90
2013,05,04,09,02,15.90
2013,05,04,09,03,15.90
2013,05,04,09,04,15.90
2013,05,04,09,05,16.00
2013,05,04,09,06,15.90
2013,05,04,09,07,16.00
2013,05,04,09,08,15.90
2013,05,04,09,09,15.90
2013,05,04,09,10,16.00
2013,05,04,09,11,16.00
2013,05,04,09,12,16.00
2013,05,04,09,13,16.10
2013,05,04,09,14,16.10
2013,05,04,09,15,16.10
2013,05,04,09,16,16.10
2013,05,04,09,17,16.20
2013,05,04,09,18,16.20
2013,05,04,09,19,16.30
2013,05,04,09,20,16.40
2013,05,04,09,21,16.50
2013,05,04,09,22,16.50
2013,05,04,09,23,16.60
2013,05,04,09,24,16.70
2013,05,04,09,25,16.80
2013,05,04,09,26,16.80
2013,05,04,09,27,16.80
2013,05,04,09,28,16.80
2013,05,04,09,29,16.80
2013,05,04,09,30,16.80
2013,05,04,09,31,16.90
2013,05,04,09,32,16.90
2013,05,04,09,33,16.90
2013,05,04,09,34,17.00
2013,05,04,09,35,17.00
2013,05,04,09,36,17.10
2013,05,04,09,37,17.10
2013,05,04,09,38,17.20
2013,05,04,09,39,17.20
2013,05,04,09,40,17.20
2013,05,04,09,41,17.20
2013,05,04,09,42,17.20
2013,05,04,09,43,17.20
2013,05,04,09,44,17.20
2013,05,04,09,45,17.30
2013,05,04,09,46,17.30
2013,05,04,09,47,17.30
2013,05,04,09,48,17.30
2013,05,04,09,49,17.30
2013,05,04,09,50,17.30
2013,05,04,09,51,17.30
2013,05,04,09,52,17.30
2013,05,04,09,53,17.30
2013,05,04,09,54,17.30
2013,05,04,09,55,17.30
2013,05,04,09,56,17.20
2013,05,04,09,57,17.20
2013,05,04,09,58,17.20
2013,05,04,09,59,17.10
2013,05,04,10,00,17.10
2013,05,04,10,01,17.10
2013,05,04,10,02,17.10
2013,05,04,10,03,17.10
2013,05,04,10,04,17.20
2013,05,04,10,05,17.20
2013,05,04,10,06,17.30
2013,05,04,10,07,17.30
2013,05,04,10,08,17.30
2013,05,04,10,09,17.30
2013,05,04,10,10,17.30
2013,05,04,10,11,17.20
2013,05,04,10,12,17.20
2013,05,04,10,13,17.20
2013,05,04,10,14,17.20
2013,05,04,10,15,17.30
2013,05,04,10,16,17.30
2013,05,04,10,17,17.40
2013,05,04,10,18,17.50
2013,05,04,10,19,17.50
2013,05,04,10,20,17.60
2013,05,04,10,21,17.60
2013,05,04,10,22,17.70
2013,05,04,10,23,17.70
2013,05,04,10,24,17.80
2013,05,04,10,25,17.80
2013,05,04,10,26,17.80
2013,05,04,10,27,17.90
2013,05,04,10,28,18.00
2013,05,04,10,29,18.00
2013,05,04,10,30,18.10
2013,05,04,10,31,18.10
2013,05,04,10,32,18.20
2013,05,04,10,33,18.20
2013,05,04,10,34,18.20
2013,05,04,10,35,18.20
2013,05,04,10,36,18.20
2013,05,04,10,37,18.20
2013,05,04,10,38,18.20
2013,05,04,10,39,18.20
2013,05,04,10,40,18.30
2013,05,04,10,41,18.30
2013,05,04,10,42,18.30
2013,05,04,10,43,18.30
2013,05,04,10,44,18.30
2013,05,04,10,45,18.30
2013,05,04,10,46,18.30
2013,05,04,10,47,18.30
2013,05,04,10,48,18.30
2013,05,04,10,49,18.40
2013,05,04,10,50,18.40
2013,05,04,10,51,18.40
2013,05,04,10,52,18.50
2013,05,04,10,53,18.60
2013,05,04,10,54,18.60
2013,05,04,10,55,18.60
2013,05,04,10,56,18.60
2013,05,04,10,57,18.70
2013,05,04,10,58,18.70
2013,05,04,10,59,18.70
2013,05,04,11,00,18.70
2013,05,04,11,01,18.70
2013,05,04,11,02,18.60
2013,05,04,11,03,18.60
2013,05,04,11,04,18.60
2013,05,04,11,05,18.60
2013,05,04,11,06,18.60
2013,05,04,11,07,18.60
2013,05,04,11,08,18.60
2013,05,04,11,09,18.60
2013,05,04,11,10,18.60
2013,05,04,11,11,18.60
2013,05,04,11,12,18.70
2013,05,04,11,13,18.70
2013,05,04,11,14,18.70
2013,05,04,11,15,18.70
2013,05,04,11,16,18.70
2013,05,04,11,17,18.70
2013,05,04,11,18,18.70
2013,05,04,11,19,18.70
2013,05,04,11,20,18.70
2013,05,04,11,21,18.70
2013,05,04,11,22,18.70
2013,05,04,11,23,18.80
2013,05,04,11,24,18.80
2013,05,04,11,25,18.80
2013,05,04,11,26,18.80
2013,05,04,11,27,18.80
2013,05,04,11,28,18.80
2013,05,04,11,29,18.80
2013,05,04,11,30,18.90
2013,05,04,11,31,18.90
2013,05,04,11,32,18.90
2013,05,04,11,33,18.90
2013,05,04,11,34,18.90
2013,05,04,11,35,18.90
2013,05,04,11,36,18.90
2013,05,04,11,37,18.90
2013,05,04,11,38,18.90
2013,05,04,11,39,18.90
2013,05,04,11,40,19.00
2013,05,04,11,41,19.10
2013,05,04,11,42,19.10
2013,05,04,11,43,19.20
2013,05,04,11,44,19.20
2013,05,04,11,45,19.20
2013,05,04,11,46,19.20
2013,05,04,11,47,19.30
2013,05,04,11,48,19.30
2013,05,04,11,49,19.30
2013,05,04,11,50,19.40
2013,05,04,11,51,19.40
2013,05,04,11,52,19.30
2013,05,04,11,53,19.30
2013,05,04,11,54,19.30
2013,05,04,11,55,19.40
2013,05,04,11,56,19.30
2013,05,04,11,57,19.30
2013,05,04,11,58,19.40
2013,05,04,11,59,19.40
2013,05,04,12,00,19.40
2013,05,04,12,01,19.40
2013,05,04,12,02,19.40
2013,05,04,12,03,19.40
2013,05,04,12,04,19.40
2013,05,04,12,05,19.40
2013,05,04,12,06,19.30
2013,05,04,12,07,19.30
2013,05,04,12,08,19.40
2013,05,04,12,09,19.40
2013,05,04,12,10,19.40
2013,05,04,12,11,19.40
2013,05,04,12,12,19.40
2013,05,04,12,13,19.50
2013,05,04,12,14,19.50
2013,05,04,12,15,19.50
2013,05,04,12,16,19.50
2013,05,04,12,17,19.60
2013,05,04,12,18,19.60
2013,05,04,12,19,19.60
2013,05,04,12,20,19.60
2013,05,04,12,21,19.70
2013,05,04,12,22,19.70
2013,05,04,12,23,19.70
2013,05,04,12,24,19.70
2013,05,04,12,25,19.60
2013,05,04,12,26,19.60
2013,05,04,12,27,19.50
2013,05,04,12,28,19.50
2013,05,04,12,29,19.40
2013,05,04,12,30,19.40
2013,05,04,12,31,19.40
2013,05,04,12,32,19.50
2013,05,04,12,33,19.50
2013,05,04,12,34,19.50
2013,05,04,12,35,19.50
2013,05,04,12,36,19.60
2013,05,04,12,37,19.70
2013,05,04,12,38,19.70
2013,05,04,12,39,19.80
2013,05,04,12,40,19.80
2013,05,04,12,41,19.90
2013,05,04,12,42,19.90
2013,05,04,12,43,20.00
2013,05,04,12,44,20.10
2013,05,04,12,45,20.10
2013,05,04,12,46,20.10
2013,05,04,12,47,20.10
2013,05,04,12,48,20.10
2013,05,04,12,49,20.10
2013,05,04,12,50,20.10
2013,05,04,12,51,20.10
2013,05,04,12,52,20.10
2013,05,04,12,53,20.10
2013,05,04,12,54,20.10
2013,05,04,12,55,20.10
2013,05,04,12,56,20.10
2013,05,04,12,57,20.10
2013,05,04,12,58,20.10
2013,05,04,12,59,20.10
2013,05,04,13,00,20.10
2013,05,04,13,01,20.10
2013,05,04,13,02,20.10
2013,05,04,13,03,20.10
2013,05,04,13,04,20.10
2013,05,04,13,05,20.10
2013,05,04,13,06,20.10
2013,05,04,13,07,20.20
2013,05,04,13,08,20.20
2013,05,04,13,09,20.20
2013,05,04,13,10,20.30
2013,05,04,13,11,20.30
2013,05,04,13,12,20.30
2013,05,04,13,13,20.30
2013,05,04,13,14,20.30
2013,05,04,13,15,20.30
2013,05,04,13,16,20.30
2013,05,04,13,17,20.20
2013,05,04,13,18,20.20
2013,05,04,13,19,20.20
2013,05,04,13,20,20.20
2013,05,04,13,21,20.20
2013,05,04,13,22,20.20
2013,05,04,13,23,20.20
2013,05,04,13,24,20.30
2013,05,04,13,25,20.30
2013,05,04,13,26,20.30
2013,05,04,13,27,20.20
2013,05,04,13,28,20.20
2013,05,04,13,29,20.20
2013,05,04,13,30,20.30
2013,05,04,13,31,20.30
2013,05,04,13,32,20.30
2013,05,04,13,33,20.40
2013,05,04,13,34,20.40
2013,05,04,13,35,20.50
2013,05,04,13,36,20.50
2013,05,04,13,37,20.60
2013,05,04,13,38,20.60
2013,05,04,13,39,20.70
2013,05,04,13,40,20.70
2013,05,04,13,41,20.80
2013,05,04,13,42,20.80
2013,05,04,13,43,20.80
2013,05,04,13,44,20.90
2013,05,04,13,45,21.00
2013,05,04,13,46,21.00
2013,05,04,13,47,21.10
2013,05,04,13,48,21.10
2013,05,04,13,49,21.20
2013,05,04,13,50,21.20
2013,05,04,13,51,21.20
2013,05,04,13,52,21.20
2013,05,04,13,53,21.20
2013,05,04,13,54,21.30
2013,05,04,13,55,21.30
2013,05,04,13,56,21.30
2013,05,04,13,57,21.30
2013,05,04,13,58,21.30
2013,05,04,13,59,21.30
2013,05,04,14,00,21.40
2013,05,04,14,01,21.40
2013,05,04,14,02,21.40
2013,05,04,14,03,21.40
2013,05,04,14,04,21.30
2013,05,04,14,05,21.30
2013,05,04,14,06,21.30
2013,05,04,14,07,21.30
2013,05,04,14,08,21.40
2013,05,04,14,09,21.50
2013,05,04,14,10,21.50
2013,05,04,14,11,21.60
2013,05,04,14,12,21.70
2013,05,04,14,13,21.80
2013,05,04,14,14,21.80
2013,05,04,14,15,21.70
2013,05,04,14,16,21.70
2013,05,04,14,17,21.60
2013,05,04,14,18,21.60
2013,05,04,14,19,21.60
2013,05,04,14,20,21.60
2013,05,04,14,21,21.70
2013,05,04,14,22,21.70
2013,05,04,14,23,21.70
2013,05,04,14,24,21.80
2013,05,04,14,25,21.80
2013,05,04,14,26,21.80
2013,05,04,14,27,21.80
2013,05,04,14,28,21.80
2013,05,04,14,29,21.90
2013,05,04,14,30,21.90
2013,05,04,14,31,22.00
2013,05,04,14,32,22.10
2013,05,04,14,33,22.10
2013,05,04,14,34,22.20
2013,05,04,14,35,22.30
2013,05,04,14,36,22.40
2013,05,04,14,37,22.40
2013,05,04,14,38,22.40
2013,05,04,14,39,22.40
2013,05,04,14,40,22.40
2013,05,04,14,41,22.30
2013,05,04,14,42,22.30
2013,05,04,14,43,22.40
2013,05,04,14,44,22.50
2013,05,04,14,45,22.50
2013,05,04,14,46,22.60
2013,05,04,14,47,22.60
2013,05,04,14,48,22.60
2013,05,04,14,49,22.60
2013,05,04,14,50,22.60
2013,05,04,14,51,22.60
2013,05,04,14,52,22.70
2013,05,04,14,53,22.70
2013,05,04,14,54,22.80
2013,05,04,14,55,22.80
2013,05,04,14,56,22.70
2013,05,04,14,57,22.70
2013,05,04,14,58,22.60
2013,05,04,14,59,22.40
2013,05,04,15,00,22.30
2013,05,04,15,01,22.10
2013,05,04,15,02,22.00
2013,05,04,15,03,22.00
2013,05,04,15,04,22.00
2013,05,04,15,05,22.00
2013,05,04,15,06,22.10
2013,05,04,15,07,22.10
2013,05,04,15,08,22.20
2013,05,04,15,09,22.30
2013,05,04,15,10,22.40
2013,05,04,15,11,22.50
2013,05,04,15,12,22.50
2013,05,04,15,13,22.60
2013,05,04,15,14,22.70
2013,05,04,15,15,22.80
2013,05,04,15,16,22.80
2013,05,04,15,17,22.90
2013,05,04,15,18,22.90
2013,05,04,15,19,22.90
2013,05,04,15,20,22.90
2013,05,04,15,21,22.90
2013,05,04,15,22,23.00
2013,05,04,15,23,22.90
2013,05,04,15,24,23.00
2013,05,04,15,25,23.00
2013,05,04,15,26,23.00
2013,05,04,15,27,23.00
2013,05,04,15,28,23.00
2013,05,04,15,29,23.00
2013,05,04,15,30,23.00
2013,05,04,15,31,23.00
2013,05,04,15,32,23.00
2013,05,04,15,33,22.90
2013,05,04,15,34,22.90
2013,05,04,15,35,22.90
2013,05,04,15,36,23.00
2013,05,04,15,37,23.00
2013,05,04,15,38,23.10
2013,05,04,15,39,23.10
2013,05,04,15,40,23.10
2013,05,04,15,41,23.10
2013,05,04,15,42,23.20
2013,05,04,15,43,23.20
2013,05,04,15,44,23.30
2013,05,04,15,45,23.40
2013,05,04,15,46,23.40
2013,05,04,15,47,23.40
2013,05,04,15,48,23.40
2013,05,04,15,49,23.40
2013,05,04,15,50,23.30
2013,05,04,15,51,23.20
2013,05,04,15,52,23.20
2013,05,04,15,53,23.10
2013,05,04,15,54,23.10
2013,05,04,15,55,23.10
2013,05,04,15,56,23.00
2013,05,04,15,57,23.00
2013,05,04,15,58,22.90
2013,05,04,15,59,22.90
2013,05,04,16,00,22.90
2013,05,04,16,01,22.90
2013,05,04,16,02,22.90
2013,05,04,16,03,23.00
2013,05,04,16,04,23.00
2013,05,04,16,05,23.00
2013,05,04,16,06,23.00
2013,05,04,16,07,23.00
2013,05,04,16,08,22.90
2013,05,04,16,09,23.00
2013,05,04,16,10,23.00
2013,05,04,16,11,23.10
2013,05,04,16,12,23.10
2013,05,04,16,13,23.10
2013,05,04,16,14,23.10
2013,05,04,16,15,23.10
2013,05,04,16,16,23.10
2013,05,04,16,17,23.10
2013,05,04,16,18,23.10
2013,05,04,16,19,23.10
2013,05,04,16,20,23.10
2013,05,04,16,21,23.10
2013,05,04,16,22,23.10
2013,05,04,16,23,23.20
2013,05,04,16,24,23.20
2013,05,04,16,25,23.30
2013,05,04,16,26,23.40
2013,05,04,16,27,23.50
2013,05,04,16,28,23.50
2013,05,04,16,29,23.50
2013,05,04,16,30,23.50
2013,05,04,16,31,23.50
2013,05,04,16,32,23.50
2013,05,04,16,33,23.40
2013,05,04,16,34,23.40
2013,05,04,16,35,23.50
2013,05,04,16,36,23.50
2013,05,04,16,37,23.50
2013,05,04,16,38,23.40
2013,05,04,16,39,23.40
2013,05,04,16,40,23.40
2013,05,04,16,41,23.30
2013,05,04,16,42,23.30
2013,05,04,16,43,23.40
2013,05,04,16,44,23.40
2013,05,04,16,45,23.40
2013,05,04,16,46,23.40
2013,05,04,16,47,23.40
2013,05,04,16,48,23.50
2013,05,04,16,49,23.50
2013,05,04,16,50,23.60
2013,05,04,16,51,23.60
2013,05,04,16,52,23.70
2013,05,04,16,53,23.70
2013,05,04,16,54,23.80
2013,05,04,16,55,23.80
2013,05,04,16,56,23.80
2013,05,04,16,57,23.90
2013,05,04,16,58,23.90
2013,05,04,16,59,24.00
2013,05,04,17,00,24.10
2013,05,04,17,01,24.10
2013,05,04,17,02,24.20
2013,05,04,17,03,24.30
2013,05,04,17,04,24.30
2013,05,04,17,05,24.20
2013,05,04,17,06,24.30
2013,05,04,17,07,24.30
2013,05,04,17,08,24.40
2013,05,04,17,09,24.50
2013,05,04,17,10,24.50
2013,05,04,17,11,24.60
2013,05,04,17,12,24.60
2013,05,04,17,13,24.70
2013,05,04,17,14,24.80
2013,05,04,17,15,24.80
2013,05,04,17,16,24.80
2013,05,04,17,17,24.90
2013,05,04,17,18,24.90
2013,05,04,17,19,24.90
2013,05,04,17,20,25.00
2013,05,04,17,21,25.00
2013,05,04,17,22,24.90
2013,05,04,17,23,24.90
2013,05,04,17,24,24.90
2013,05,04,17,25,24.90
2013,05,04,17,26,24.80
2013,05,04,17,27,24.70
2013,05,04,17,28,24.60
2013,05,04,17,29,24.60
2013,05,04,17,30,24.50
2013,05,04,17,31,24.40
2013,05,04,17,32,24.40
2013,05,04,17,33,24.40
2013,05,04,17,34,24.40
2013,05,04,17,35,24.40
2013,05,04,17,36,24.40